Voltar ao catálogo

KOSEN-2R

AtivoCiênciaSSO
NORAD 68793·PAYLOAD·🇯🇵 Japan

Lançado Apr 23, 2026 de Rocket Lab Launch Complex 1

Loading…

Próximas Passagens (próximas 24 horas)

TLE

AtualizadoSource: Space-Track

Época: Sep 14, 2026, 08:46 UTC

1 68793U 26088B   26257.36587786  .00003653  00000-0  24387-3 0  9993
2 68793  97.5191  44.5263 0015934 153.9872 206.2161 15.07540543 21722

Acompanhe KOSEN-2R em tempo real com AllMySat

Download on the App Store